Location: 5810 Zion Rd, Cleves, OH 45002, USA
(39.1922°N, 84.7113°W)
Time: 02:16:58
(UTC-05:00)

X-37B - Visible Passes

Search period start: 04 March 2021 00:00
Search period end: 14 March 2021 00:00
Orbit: 383 x 391 km, 45.0° (Epoch: 27 February)

Date Brightness Start Highest point End Pass type
(mag) Time Alt. Az. Time Alt. Az. Time Alt. Az.
04 Mar 2.3 05:52:49 19° SSW 05:52:49 19° SSW 05:54:52 10° S visible
09 Mar 3.4 20:45:08 10° SW 20:45:35 13° SW 20:45:35 13° SW visible
10 Mar 1.6 19:47:11 10° SSW 19:50:00 29° SE 19:50:31 27° SE visible
11 Mar 1.0 20:24:55 10° WSW 20:27:38 61° W 20:27:38 61° W visible
12 Mar 0.8 19:26:38 10° SW 19:29:46 55° SSE 19:32:19 15° ENE visible
12 Mar 3.5 21:03:32 10° W 21:04:37 18° WNW 21:04:37 18° WNW visible
13 Mar 1.3 20:04:55 10° W 20:08:03 49° NNW 20:09:11 32° NE visible
